Weather in Ilyino

Russia / Lipetsk Oblast     52°43′20″N   39°40′03″E
temp.,
°C
wind,
m/s
gust,
m/s
humid.,
%
clouds,
%
prec.,
mm/h
press.,
hPa
HPBL,
m
29 november, mon
mon2900:00+5sse2594100 0.0 1011112
03:00+5se3794100 0.0 1010159
06:00+5ese3996100 0.0 1008237
09:00+6ese51398100 1.6 1005449
12:00+7sse51196100 1.3 1003507
15:00+7sse41098100 1.4 1001351
18:00+8sse61498100 0.0 999606
21:00+9se81894100 1.6 993931
30 november, tue
tue3000:00+11sse112187100 4.1 9871272
03:00+11s102084100 5.4 9811364
06:00+10sw101780100 2.0 9801399
09:00+7sw111783100 2.6 9861264
12:00+5sw1119615 0.1 9891488
15:00+4sw101863100 0.1 9911530
18:00+3sw10186485 0.0 9921457
21:00+2wsw916705 0.0 9911168
1 december, wed
wed100:00+1wsw6127496 0.0 993781
03:000sw4879100 0.0 994455
06:00−1w3778100 0.0 993484
09:00−1w487499 0.0 994524
12:00+1w576590 0.0 9951043
15:00+1w585853 0.0 995966
18:00−1wsw497246 0.0 997492
21:00−1wsw498183 0.0 998696
2 december, thu
thu200:00−1wsw5987100 0.0 999608
03:00−2w59695 0.1 1001597
06:00−3w587187 0.0 1004642
09:00−3wsw487415 0.0 1006546
12:00−1sw5862100 0.0 1007684
15:000ssw61158100 0.0 1006761
18:00−1ssw71590100 0.4 1005598
21:00+1ssw7167898 0.4 1004657
3 december, fri
fri300:00+1sw61591100 0.0 1004575
03:00+2sw6139192 0.0 1005497
06:00+2ssw6139185 0.0 1006320
09:00+2ssw51389100 0.0 1007380
12:00+4ssw61491100 0.0 1007590
15:00+5ssw51285100 0.0 1006556
18:00+5s51389100 0.0 1006566
21:00+6s61588100 0.1 1004675